Location: Brno
(49.2000°N, 16.6330°E)
Time: 02:27:07
(UTC+02:00)

Vanguard 3 - Pass Details

Date: 06 August 2021
Orbit: 510 x 3260 km, 33.3° (Epoch: 19 September)

Event Time Altitude Azimuth Distance (km) Brightness Sun altitude
Rises 18:15:54 0° 238° (WSW) 5,040 12.1 19.5°
Reaches altitude 10° 18:18:59 10° 232° (SW) 4,379 11.7 19.0°
Maximum altitude 18:30:51 42° 167° (SSE) 3,451 10.4 17.0°
Drops below altitude 10° 18:47:51 10° 106° (ESE) 6,167 11.1 14.3°
Sets 18:53:11 0° 100° (E) 7,226 11.3 13.4°
